Location: Campolattaro
(41.2833°N, 14.7333°E)
Time: 20:30:47
(UTC+00:00)

Cosmos 1953 Rocket - Pass Details

Date: 19 May 2025
Orbit: 599 x 627 km, 82.5° (Epoch: 15 June)

Event Time Altitude Azimuth Distance (km) Brightness Sun altitude
Rises 19:36:49 0° 351° (N) 2,925 7.9 -13.1°
Reaches altitude 10° 19:39:04 10° 351° (N) 2,012 7.0 -13.4°
Maximum altitude 19:43:32 84° 265° (W) 635 3.6 -14.0°
Enters shadow 19:47:10 15° 176° (S) 1,677 5.3 -14.5°
